owner,sensor,date,latitude,longitude,vertical_datum,wind_speed,wind_to_direction,wind_speed_of_gust,qcFlag 
LUMCON,ioos:station:LUMCON:101:1,2009-01-05T20:00:00Z,29.2533,-90.6633,1.0,5.1,180.0,7.2,'11111222,11111222,11111222' 
LUMCON,ioos:station:LUMCON:101:1,2009-01-05T21:00:00Z,29.2533,-90.6633,1.0,4.6,200.0,6.2,'11111222,11111222,11111222' 
LUMCON,ioos:station:LUMCON:101:1,2009-01-05T22:00:00Z,29.2533,-90.6633,1.0,3.6,180.0,5.7,'11111222,11111222,11111222' 
LUMCON,ioos:station:LUMCON:101:1,2009-01-05T23:00:00Z,29.2533,-90.6633,1.0,3.6,180.0,5.7,'11111222,11111222,11111222' 
LUMCON,ioos:station:LUMCON:101:1,2009-01-06T00:00:00Z,29.2533,-90.6633,1.0,3.1,180.0,4.1,'11111222,11111222,11111222' 
LUMCON,ioos:station:LUMCON:101:1,2009-01-06T01:00:00Z,29.2533,-90.6633,1.0,2.6,170.0,4.1,'11111222,11111222,11111222' 
LUMCON,ioos:station:LUMCON:101:1,2009-01-06T02:00:00Z,29.2533,-90.6633,1.0,3.6,170.0,5.7,'11111222,11111222,11111222' 
LUMCON,ioos:station:LUMCON:101:1,2009-01-06T03:00:00Z,29.2533,-90.6633,1.0,3.6,180.0,5.1,'11111222,11111222,11111222' 
LUMCON,ioos:station:LUMCON:101:1,2009-01-06T04:00:00Z,29.2533,-90.6633,1.0,3.6,180.0,5.7,'11111222,11111222,11111222' 
LUMCON,ioos:station:LUMCON:101:1,2009-01-06T05:00:00Z,29.2533,-90.6633,1.0,4.1,180.0,6.2,'11111222,11111222,11111222' 
LUMCON,ioos:station:LUMCON:101:1,2009-01-06T06:00:00Z,29.2533,-90.6633,1.0,4.6,180.0,6.7,'11111222,11111222,11111222' 
LUMCON,ioos:station:LUMCON:101:1,2009-01-06T07:00:00Z,29.2533,-90.6633,1.0,5.1,180.0,6.7,'11111222,11111222,11111222' 
LUMCON,ioos:station:LUMCON:101:1,2009-01-06T08:00:00Z,29.2533,-90.6633,1.0,5.1,170.0,7.2,'11111222,11111222,11111222' 
LUMCON,ioos:station:LUMCON:101:1,2009-01-06T09:00:00Z,29.2533,-90.6633,1.0,6.2,180.0,9.3,'11111222,11111222,11111222' 
LUMCON,ioos:station:LUMCON:101:1,2009-01-06T10:00:00Z,29.2533,-90.6633,1.0,5.7,180.0,7.7,'11111222,11111222,11111222' 
LUMCON,ioos:station:LUMCON:101:1,2009-01-06T11:00:00Z,29.2533,-90.6633,1.0,5.1,190.0,7.7,'11111222,11111222,11111222' 
LUMCON,ioos:station:LUMCON:101:1,2009-01-06T12:00:00Z,29.2533,-90.6633,1.0,5.7,180.0,7.7,'11111222,11111222,11111222' 
LUMCON,ioos:station:LUMCON:101:1,2009-01-06T13:00:00Z,29.2533,-90.6633,1.0,5.1,180.0,8.2,'11111222,11111222,11111222' 
LUMCON,ioos:station:LUMCON:101:1,2009-01-06T14:00:00Z,29.2533,-90.6633,1.0,6.2,180.0,9.3,'11111222,11111222,11111222' 
LUMCON,ioos:station:LUMCON:101:1,2009-01-06T15:00:00Z,29.2533,-90.6633,1.0,6.2,170.0,9.3,'11111222,11111222,11111222' 
LUMCON,ioos:station:LUMCON:101:1,2009-01-06T16:00:00Z,29.2533,-90.6633,1.0,6.7,180.0,8.8,'11111222,11111222,11111222' 
LUMCON,ioos:station:LUMCON:101:1,2009-01-06T17:00:00Z,29.2533,-90.6633,1.0,7.2,180.0,9.8,'11111222,11111222,11111222' 
LUMCON,ioos:station:LUMCON:101:1,2009-01-06T18:00:00Z,29.2533,-90.6633,1.0,8.8,180.0,9.8,'11111222,11111222,11111222' 
LUMCON,ioos:station:LUMCON:101:1,2009-01-06T19:00:00Z,29.2533,-90.6633,1.0,7.7,180.0,9.3,'11111222,11111222,11111222' 
LUMCON,ioos:station:LUMCON:101:1,2009-01-06T20:00:00Z,29.2533,-90.6633,1.0,7.2,190.0,9.3,'11111222,11111222,11111222' 
LUMCON,ioos:station:LUMCON:101:1,2009-01-06T22:00:00Z,29.2533,-90.6633,1.0,8.2,200.0,9.8,'11111222,11111222,11111222' 
LUMCON,ioos:station:LUMCON:101:1,2009-01-06T23:00:00Z,29.2533,-90.6633,1.0,7.2,280.0,9.8,'11111222,11111222,11111222' 
LUMCON,ioos:station:LUMCON:101:1,2009-01-07T00:00:00Z,29.2533,-90.6633,1.0,5.1,290.0,7.2,'11111222,11111222,11111222' 
LUMCON,ioos:station:LUMCON:101:1,2009-01-07T01:00:00Z,29.2533,-90.6633,1.0,5.1,280.0,6.7,'11111222,11111222,11111222' 
LUMCON,ioos:station:LUMCON:101:1,2009-01-07T02:00:00Z,29.2533,-90.6633,1.0,5.1,290.0,7.2,'11111222,11111222,11111222' 
LUMCON,ioos:station:LUMCON:101:1,2009-01-07T03:00:00Z,29.2533,-90.6633,1.0,5.1,270.0,8.8,'11111222,11111222,11111222' 
LUMCON,ioos:station:LUMCON:101:1,2009-01-07T04:00:00Z,29.2533,-90.6633,1.0,7.2,280.0,8.8,'11111222,11111222,11111222' 
LUMCON,ioos:station:LUMCON:101:1,2009-01-07T05:00:00Z,29.2533,-90.6633,1.0,7.2,290.0,9.8,'11111222,11111222,11111222' 
LUMCON,ioos:station:LUMCON:101:1,2009-01-07T06:00:00Z,29.2533,-90.6633,1.0,7.2,280.0,9.8,'11111222,11111222,11111222' 
LUMCON,ioos:station:LUMCON:101:1,2009-01-07T07:00:00Z,29.2533,-90.6633,1.0,7.2,270.0,9.8,'11111222,11111222,11111222' 
LUMCON,ioos:station:LUMCON:101:1,2009-01-07T08:00:00Z,29.2533,-90.6633,1.0,5.1,270.0,7.7,'11111222,11111222,11111222' 
LUMCON,ioos:station:LUMCON:101:1,2009-01-07T09:00:00Z,29.2533,-90.6633,1.0,8.8,270.0,9.8,'11111222,11111222,11111222' 
LUMCON,ioos:station:LUMCON:101:1,2009-01-07T10:00:00Z,29.2533,-90.6633,1.0,8.2,280.0,9.8,'11111222,11111222,11111222' 
LUMCON,ioos:station:LUMCON:101:1,2009-01-07T11:00:00Z,29.2533,-90.6633,1.0,9.3,290.0,9.8,'11111222,11111222,11111222' 
LUMCON,ioos:station:LUMCON:101:1,2009-01-07T12:00:00Z,29.2533,-90.6633,1.0,8.8,290.0,9.8,'11111222,11111222,11111222' 
LUMCON,ioos:station:LUMCON:101:1,2009-01-07T13:00:00Z,29.2533,-90.6633,1.0,8.2,300.0,9.3,'11111222,11111222,11111222' 
LUMCON,ioos:station:LUMCON:101:1,2009-01-07T14:00:00Z,29.2533,-90.6633,1.0,6.2,300.0,8.2,'11111222,11111222,11111222' 
LUMCON,ioos:station:LUMCON:101:1,2009-01-07T15:00:00Z,29.2533,-90.6633,1.0,4.6,300.0,6.2,'11111222,11111222,11111222' 
LUMCON,ioos:station:LUMCON:101:1,2009-01-07T16:00:00Z,29.2533,-90.6633,1.0,3.6,330.0,5.1,'11111222,11111222,11111222' 
LUMCON,ioos:station:LUMCON:101:1,2009-01-07T17:00:00Z,29.2533,-90.6633,1.0,2.6,350.0,4.1,'11111222,11111222,11111222' 
LUMCON,ioos:station:LUMCON:101:1,2009-01-07T18:00:00Z,29.2533,-90.6633,1.0,2.1,340.0,4.1,'11111222,11111222,11111222' 
LUMCON,ioos:station:LUMCON:101:1,2009-01-07T19:00:00Z,29.2533,-90.6633,1.0,2.6,10.0,4.1,'11111222,11111222,11111222' 
LUMCON,ioos:station:LUMCON:101:1,2009-01-07T20:00:00Z,29.2533,-90.6633,1.0,2.1,270.0,3.6,'11111222,11111222,11111222' 
LUMCON,ioos:station:LUMCON:101:1,2009-01-07T21:00:00Z,29.2533,-90.6633,1.0,2.6,250.0,4.1,'11111222,11111222,11111222' 
LUMCON,ioos:station:LUMCON:101:1,2009-01-07T22:00:00Z,29.2533,-90.6633,1.0,3.6,220.0,6.2,'11111222,11111222,11111222' 
LUMCON,ioos:station:LUMCON:101:1,2009-01-07T23:00:00Z,29.2533,-90.6633,1.0,5.1,220.0,7.2,'11111222,11111222,11111222' 
LUMCON,ioos:station:LUMCON:101:1,2009-01-08T00:00:00Z,29.2533,-90.6633,1.0,4.1,230.0,6.2,'11111222,11111222,11111222' 
LUMCON,ioos:station:LUMCON:101:1,2009-01-08T01:00:00Z,29.2533,-90.6633,1.0,3.1,230.0,4.6,'11111222,11111222,11111222' 
LUMCON,ioos:station:LUMCON:101:1,2009-01-08T02:00:00Z,29.2533,-90.6633,1.0,3.1,220.0,4.1,'11111222,11111222,11111222' 
LUMCON,ioos:station:LUMCON:101:1,2009-01-08T03:00:00Z,29.2533,-90.6633,1.0,2.6,240.0,3.1,'11111222,11111222,11111222' 
LUMCON,ioos:station:LUMCON:101:1,2009-01-08T04:00:00Z,29.2533,-90.6633,1.0,4.1,230.0,4.6,'11111222,11111222,11111222' 
LUMCON,ioos:station:LUMCON:101:1,2009-01-08T05:00:00Z,29.2533,-90.6633,1.0,3.6,220.0,5.1,'11111222,11111222,11111222' 
LUMCON,ioos:station:LUMCON:101:1,2009-01-08T06:00:00Z,29.2533,-90.6633,1.0,3.6,230.0,4.1,'11111222,11111222,11111222' 
LUMCON,ioos:station:LUMCON:101:1,2009-01-08T07:00:00Z,29.2533,-90.6633,1.0,3.6,220.0,4.6,'11111222,11111222,11111222' 
LUMCON,ioos:station:LUMCON:101:1,2009-01-08T08:00:00Z,29.2533,-90.6633,1.0,2.6,230.0,3.6,'11111222,11111222,11111222' 
LUMCON,ioos:station:LUMCON:101:1,2009-01-08T09:00:00Z,29.2533,-90.6633,1.0,3.1,220.0,3.6,'11111222,11111222,11111222' 
LUMCON,ioos:station:LUMCON:101:1,2009-01-08T10:00:00Z,29.2533,-90.6633,1.0,2.6,230.0,2.6,'11111222,11111222,11111222' 
LUMCON,ioos:station:LUMCON:101:1,2009-01-08T11:00:00Z,29.2533,-90.6633,1.0,3.1,230.0,3.1,'11111222,11111222,11111222' 
LUMCON,ioos:station:LUMCON:101:1,2009-01-08T12:00:00Z,29.2533,-90.6633,1.0,2.6,240.0,2.6,'11111222,11111222,11111222' 
LUMCON,ioos:station:LUMCON:101:1,2009-01-08T13:00:00Z,29.2533,-90.6633,1.0,2.1,240.0,2.6,'11111222,11111222,11111222' 
LUMCON,ioos:station:LUMCON:101:1,2009-01-08T14:00:00Z,29.2533,-90.6633,1.0,2.1,230.0,2.6,'11111222,11111222,11111222' 
LUMCON,ioos:station:LUMCON:101:1,2009-01-08T15:00:00Z,29.2533,-90.6633,1.0,3.6,260.0,4.6,'11111222,11111222,11111222' 
LUMCON,ioos:station:LUMCON:101:1,2009-01-08T16:00:00Z,29.2533,-90.6633,1.0,4.6,260.0,6.7,'11111222,11111222,11111222' 
LUMCON,ioos:station:LUMCON:101:1,2009-01-08T17:00:00Z,29.2533,-90.6633,1.0,5.7,260.0,7.7,'11111222,11111222,11111222' 
LUMCON,ioos:station:LUMCON:101:1,2009-01-08T18:00:00Z,29.2533,-90.6633,1.0,5.7,260.0,8.2,'11111222,11111222,11111222' 
LUMCON,ioos:station:LUMCON:101:1,2009-01-08T19:00:00Z,29.2533,-90.6633,1.0,5.7,270.0,8.2,'11111222,11111222,11111222' 
LUMCON,ioos:station:LUMCON:101:1,2009-01-08T20:00:00Z,29.2533,-90.6633,1.0,7.2,280.0,9.8,'11111222,11111222,11111222' 
LUMCON,ioos:station:LUMCON:101:1,2009-01-08T21:00:00Z,29.2533,-90.6633,1.0,6.2,270.0,9.3,'11111222,11111222,11111222' 
LUMCON,ioos:station:LUMCON:101:1,2009-01-08T22:00:00Z,29.2533,-90.6633,1.0,5.7,280.0,7.7,'11111222,11111222,11111222' 
LUMCON,ioos:station:LUMCON:101:1,2009-01-08T23:00:00Z,29.2533,-90.6633,1.0,4.1,280.0,5.7,'11111222,11111222,11111222' 
LUMCON,ioos:station:LUMCON:101:1,2009-01-09T00:00:00Z,29.2533,-90.6633,1.0,3.1,260.0,3.6,'11111222,11111222,11111222' 
LUMCON,ioos:station:LUMCON:101:1,2009-01-09T01:00:00Z,29.2533,-90.6633,1.0,2.6,240.0,2.6,'11111222,11111222,11111222' 
LUMCON,ioos:station:LUMCON:101:1,2009-01-09T02:00:00Z,29.2533,-90.6633,1.0,2.1,230.0,2.1,'11111222,11111222,11111222' 
LUMCON,ioos:station:LUMCON:101:1,2009-01-09T03:00:00Z,29.2533,-90.6633,1.0,2.1,230.0,2.1,'11111222,11111222,11111222' 
LUMCON,ioos:station:LUMCON:101:1,2009-01-09T04:00:00Z,29.2533,-90.6633,1.0,1.5,250.0,2.1,'11111222,11111222,11111222' 
LUMCON,ioos:station:LUMCON:101:1,2009-01-09T05:00:00Z,29.2533,-90.6633,1.0,2.1,230.0,2.1,'11111222,11111222,11111222' 
LUMCON,ioos:station:LUMCON:101:1,2009-01-09T06:00:00Z,29.2533,-90.6633,1.0,2.6,210.0,3.1,'11111222,11111222,11111222' 
LUMCON,ioos:station:LUMCON:101:1,2009-01-09T07:00:00Z,29.2533,-90.6633,1.0,1.5,210.0,2.1,'11111222,11111222,11111222' 
LUMCON,ioos:station:LUMCON:101:1,2009-01-09T08:00:00Z,29.2533,-90.6633,1.0,0.0,210.0,0.5,'11111222,11111222,11111222' 
LUMCON,ioos:station:LUMCON:101:1,2009-01-09T09:00:00Z,29.2533,-90.6633,1.0,0.5,120.0,1.0,'11111222,11111222,11111222' 
LUMCON,ioos:station:LUMCON:101:1,2009-01-09T10:00:00Z,29.2533,-90.6633,1.0,1.5,150.0,2.1,'11111222,11111222,11111222' 
LUMCON,ioos:station:LUMCON:101:1,2009-01-09T11:00:00Z,29.2533,-90.6633,1.0,2.1,120.0,2.6,'11111222,11111222,11111222' 
LUMCON,ioos:station:LUMCON:101:1,2009-01-09T12:00:00Z,29.2533,-90.6633,1.0,2.6,110.0,3.1,'11111222,11111222,11111222' 
LUMCON,ioos:station:LUMCON:101:1,2009-01-09T13:00:00Z,29.2533,-90.6633,1.0,2.6,120.0,3.1,'11111222,11111222,11111222' 
LUMCON,ioos:station:LUMCON:101:1,2009-01-09T14:00:00Z,29.2533,-90.6633,1.0,2.1,120.0,2.6,'11111222,11111222,11111222' 
LUMCON,ioos:station:LUMCON:101:1,2009-01-09T15:00:00Z,29.2533,-90.6633,1.0,3.1,130.0,4.1,'11111222,11111222,11111222' 
LUMCON,ioos:station:LUMCON:101:1,2009-01-09T16:00:00Z,29.2533,-90.6633,1.0,4.1,120.0,5.1,'11111222,11111222,11111222' 
LUMCON,ioos:station:LUMCON:101:1,2009-01-09T17:00:00Z,29.2533,-90.6633,1.0,4.1,110.0,6.2,'11111222,11111222,11111222' 
LUMCON,ioos:station:LUMCON:101:1,2009-01-09T18:00:00Z,29.2533,-90.6633,1.0,4.6,120.0,6.7,'11111222,11111222,11111222' 
LUMCON,ioos:station:LUMCON:101:1,2009-01-09T19:00:00Z,29.2533,-90.6633,1.0,5.1,130.0,7.2,'11111222,11111222,11111222' 
LUMCON,ioos:station:LUMCON:101:1,2009-01-09T20:00:00Z,29.2533,-90.6633,1.0,5.1,130.0,6.7,'11111222,11111222,11111222' 
LUMCON,ioos:station:LUMCON:101:1,2009-01-09T21:00:00Z,29.2533,-90.6633,1.0,5.1,130.0,6.2,'11111222,11111222,11111222' 
LUMCON,ioos:station:LUMCON:101:1,2009-01-09T22:00:00Z,29.2533,-90.6633,1.0,4.1,120.0,5.7,'11111222,11111222,11111222' 
LUMCON,ioos:station:LUMCON:101:1,2009-01-09T23:00:00Z,29.2533,-90.6633,1.0,3.6,120.0,5.1,'11111222,11111222,11111222' 
LUMCON,ioos:station:LUMCON:101:1,2009-01-10T00:00:00Z,29.2533,-90.6633,1.0,3.6,130.0,5.1,'11111222,11111222,11111222' 
LUMCON,ioos:station:LUMCON:101:1,2009-01-10T01:00:00Z,29.2533,-90.6633,1.0,3.6,140.0,5.1,'11111222,11111222,11111222' 
LUMCON,ioos:station:LUMCON:101:1,2009-01-10T02:00:00Z,29.2533,-90.6633,1.0,4.6,150.0,6.2,'11111222,11111222,11111222' 
LUMCON,ioos:station:LUMCON:101:1,2009-01-10T03:00:00Z,29.2533,-90.6633,1.0,4.6,160.0,6.7,'11111222,11111222,11111222' 
LUMCON,ioos:station:LUMCON:101:1,2009-01-10T04:00:00Z,29.2533,-90.6633,1.0,5.1,160.0,6.7,'11111222,11111222,11111222' 
LUMCON,ioos:station:LUMCON:101:1,2009-01-10T05:00:00Z,29.2533,-90.6633,1.0,5.1,170.0,6.7,'11111222,11111222,11111222' 
LUMCON,ioos:station:LUMCON:101:1,2009-01-10T06:00:00Z,29.2533,-90.6633,1.0,3.6,160.0,4.1,'11111222,11111222,11111222' 
LUMCON,ioos:station:LUMCON:101:1,2009-01-10T07:00:00Z,29.2533,-90.6633,1.0,3.1,160.0,4.1,'11111222,11111222,11111222' 
LUMCON,ioos:station:LUMCON:101:1,2009-01-10T08:00:00Z,29.2533,-90.6633,1.0,4.1,170.0,5.1,'11111222,11111222,11111222' 
LUMCON,ioos:station:LUMCON:101:1,2009-01-10T09:00:00Z,29.2533,-90.6633,1.0,2.1,180.0,4.1,'11111222,11111222,11111222' 
LUMCON,ioos:station:LUMCON:101:1,2009-01-10T10:00:00Z,29.2533,-90.6633,1.0,2.6,170.0,4.1,'11111222,11111222,11111222' 
LUMCON,ioos:station:LUMCON:101:1,2009-01-10T11:00:00Z,29.2533,-90.6633,1.0,2.6,190.0,3.6,'11111222,11111222,11111222' 
LUMCON,ioos:station:LUMCON:101:1,2009-01-10T12:00:00Z,29.2533,-90.6633,1.0,3.6,170.0,5.1,'11111222,11111222,11111222' 
LUMCON,ioos:station:LUMCON:101:1,2009-01-10T13:00:00Z,29.2533,-90.6633,1.0,3.6,180.0,5.1,'11111222,11111222,11111222' 
LUMCON,ioos:station:LUMCON:101:1,2009-01-10T14:00:00Z,29.2533,-90.6633,1.0,4.6,180.0,5.7,'11111222,11111222,11111222' 
LUMCON,ioos:station:LUMCON:101:1,2009-01-10T15:00:00Z,29.2533,-90.6633,1.0,4.1,190.0,6.2,'11111222,11111222,11111222' 
LUMCON,ioos:station:LUMCON:101:1,2009-01-10T16:00:00Z,29.2533,-90.6633,1.0,5.7,190.0,7.7,'11111222,11111222,11111222' 
LUMCON,ioos:station:LUMCON:101:1,2009-01-10T17:00:00Z,29.2533,-90.6633,1.0,6.7,200.0,9.3,'11111222,11111222,11111222' 
LUMCON,ioos:station:LUMCON:101:1,2009-01-10T18:00:00Z,29.2533,-90.6633,1.0,8.2,220.0,9.8,'11111222,11111222,11111222' 
LUMCON,ioos:station:LUMCON:101:1,2009-01-10T19:00:00Z,29.2533,-90.6633,1.0,8.2,220.0,9.8,'11111222,11111222,11111222' 
LUMCON,ioos:station:LUMCON:101:1,2009-01-10T20:00:00Z,29.2533,-90.6633,1.0,7.7,230.0,9.8,'11111222,11111222,11111222' 
LUMCON,ioos:station:LUMCON:101:1,2009-01-10T21:00:00Z,29.2533,-90.6633,1.0,8.2,220.0,9.8,'11111222,11111222,11111222' 
LUMCON,ioos:station:LUMCON:101:1,2009-01-10T22:00:00Z,29.2533,-90.6633,1.0,6.2,230.0,8.8,'11111222,11111222,11111222' 
LUMCON,ioos:station:LUMCON:101:1,2009-01-10T23:00:00Z,29.2533,-90.6633,1.0,5.7,210.0,7.7,'11111222,11111222,11111222' 
LUMCON,ioos:station:LUMCON:101:1,2009-01-11T00:00:00Z,29.2533,-90.6633,1.0,5.7,220.0,6.7,'11111222,11111222,11111222' 
LUMCON,ioos:station:LUMCON:101:1,2009-01-11T01:00:00Z,29.2533,-90.6633,1.0,4.1,220.0,6.2,'11111222,11111222,11111222' 
LUMCON,ioos:station:LUMCON:101:1,2009-01-11T02:00:00Z,29.2533,-90.6633,1.0,4.1,230.0,5.7,'11111222,11111222,11111222' 
LUMCON,ioos:station:LUMCON:101:1,2009-01-11T03:00:00Z,29.2533,-90.6633,1.0,4.1,280.0,6.2,'11111222,11111222,11111222' 
LUMCON,ioos:station:LUMCON:101:1,2009-01-11T04:00:00Z,29.2533,-90.6633,1.0,3.6,310.0,6.2,'11111222,11111222,11111222' 
LUMCON,ioos:station:LUMCON:101:1,2009-01-11T05:00:00Z,29.2533,-90.6633,1.0,6.7,340.0,8.8,'11111222,11111222,11111222' 
LUMCON,ioos:station:LUMCON:101:1,2009-01-11T06:00:00Z,29.2533,-90.6633,1.0,5.7,340.0,8.2,'11111222,11111222,11111222' 
LUMCON,ioos:station:LUMCON:101:1,2009-01-11T07:00:00Z,29.2533,-90.6633,1.0,5.1,330.0,6.7,'11111222,11111222,11111222' 
LUMCON,ioos:station:LUMCON:101:1,2009-01-11T08:00:00Z,29.2533,-90.6633,1.0,7.2,350.0,9.3,'11111222,11111222,11111222' 
LUMCON,ioos:station:LUMCON:101:1,2009-01-11T09:00:00Z,29.2533,-90.6633,1.0,7.7,10.0,9.8,'11111222,11111222,11111222' 
LUMCON,ioos:station:LUMCON:101:1,2009-01-11T10:00:00Z,29.2533,-90.6633,1.0,7.2,10.0,9.8,'11111222,11111222,11111222' 
LUMCON,ioos:station:LUMCON:101:1,2009-01-11T11:00:00Z,29.2533,-90.6633,1.0,6.7,10.0,8.8,'11111222,11111222,11111222' 
LUMCON,ioos:station:LUMCON:101:1,2009-01-11T12:00:00Z,29.2533,-90.6633,1.0,6.2,0.0,7.7,'11111222,11111222,11111222' 
LUMCON,ioos:station:LUMCON:101:1,2009-01-11T13:00:00Z,29.2533,-90.6633,1.0,7.2,20.0,8.8,'11111222,11111222,11111222' 
LUMCON,ioos:station:LUMCON:101:1,2009-01-11T14:00:00Z,29.2533,-90.6633,1.0,7.7,360.0,9.8,'11111222,11144222,11111222' 
LUMCON,ioos:station:LUMCON:101:1,2009-01-11T15:00:00Z,29.2533,-90.6633,1.0,6.2,10.0,9.3,'11111222,11111222,11111222' 
LUMCON,ioos:station:LUMCON:101:1,2009-01-11T16:00:00Z,29.2533,-90.6633,1.0,5.7,0.0,8.2,'11111222,11111222,11111222' 
LUMCON,ioos:station:LUMCON:101:1,2009-01-11T17:00:00Z,29.2533,-90.6633,1.0,7.2,360.0,9.3,'11111222,11144222,11111222' 
LUMCON,ioos:station:LUMCON:101:1,2009-01-11T18:00:00Z,29.2533,-90.6633,1.0,6.2,0.0,8.2,'11111222,11111222,11111222' 
LUMCON,ioos:station:LUMCON:101:1,2009-01-11T19:00:00Z,29.2533,-90.6633,1.0,6.7,360.0,9.3,'11111222,11144222,11111222' 
LUMCON,ioos:station:LUMCON:101:1,2009-01-11T20:00:00Z,29.2533,-90.6633,1.0,5.7,350.0,7.7,'11111222,11111222,11111222' 
LUMCON,ioos:station:LUMCON:101:1,2009-01-11T21:00:00Z,29.2533,-90.6633,1.0,5.7,20.0,8.2,'11111222,11111222,11111222' 
LUMCON,ioos:station:LUMCON:101:1,2009-01-11T22:00:00Z,29.2533,-90.6633,1.0,5.7,0.0,7.7,'11111222,11111222,11111222' 
LUMCON,ioos:station:LUMCON:101:1,2009-01-11T23:00:00Z,29.2533,-90.6633,1.0,6.7,20.0,9.3,'11111222,11111222,11111222' 
LUMCON,ioos:station:LUMCON:101:1,2009-01-12T00:00:00Z,29.2533,-90.6633,1.0,6.2,10.0,7.7,'11111222,11111222,11111222' 
LUMCON,ioos:station:LUMCON:101:1,2009-01-12T01:00:00Z,29.2533,-90.6633,1.0,6.2,20.0,9.3,'11111222,11111222,11111222' 
LUMCON,ioos:station:LUMCON:101:1,2009-01-12T02:00:00Z,29.2533,-90.6633,1.0,7.7,10.0,9.8,'11111222,11111222,11111222' 
LUMCON,ioos:station:LUMCON:101:1,2009-01-12T03:00:00Z,29.2533,-90.6633,1.0,7.2,20.0,9.3,'11111222,11111222,11111222' 
LUMCON,ioos:station:LUMCON:101:1,2009-01-12T04:00:00Z,29.2533,-90.6633,1.0,5.7,30.0,7.7,'11111222,11111222,11111222' 
LUMCON,ioos:station:LUMCON:101:1,2009-01-12T05:00:00Z,29.2533,-90.6633,1.0,3.6,20.0,5.7,'11111222,11111222,11111222' 
LUMCON,ioos:station:LUMCON:101:1,2009-01-12T06:00:00Z,29.2533,-90.6633,1.0,4.1,30.0,5.1,'11111222,11111222,11111222' 
LUMCON,ioos:station:LUMCON:101:1,2009-01-12T07:00:00Z,29.2533,-90.6633,1.0,4.1,10.0,6.2,'11111222,11111222,11111222' 
LUMCON,ioos:station:LUMCON:101:1,2009-01-12T08:00:00Z,29.2533,-90.6633,1.0,4.1,20.0,5.1,'11111222,11111222,11111222' 
LUMCON,ioos:station:LUMCON:101:1,2009-01-12T09:00:00Z,29.2533,-90.6633,1.0,5.1,10.0,6.7,'11111222,11111222,11111222' 
LUMCON,ioos:station:LUMCON:101:1,2009-01-12T10:00:00Z,29.2533,-90.6633,1.0,5.7,20.0,7.2,'11111222,11111222,11111222' 
LUMCON,ioos:station:LUMCON:101:1,2009-01-12T11:00:00Z,29.2533,-90.6633,1.0,5.1,20.0,6.7,'11111222,11111222,11111222' 
LUMCON,ioos:station:LUMCON:101:1,2009-01-12T12:00:00Z,29.2533,-90.6633,1.0,5.1,30.0,6.7,'11111222,11111222,11111222' 
LUMCON,ioos:station:LUMCON:101:1,2009-01-12T13:00:00Z,29.2533,-90.6633,1.0,5.1,40.0,7.2,'11111222,11111222,11111222' 
LUMCON,ioos:station:LUMCON:101:1,2009-01-12T14:00:00Z,29.2533,-90.6633,1.0,5.7,50.0,7.2,'11111222,11111222,11111222' 
LUMCON,ioos:station:LUMCON:101:1,2009-01-12T15:00:00Z,29.2533,-90.6633,1.0,6.2,40.0,7.7,'11111222,11111222,11111222' 
LUMCON,ioos:station:LUMCON:101:1,2009-01-12T16:00:00Z,29.2533,-90.6633,1.0,6.2,60.0,8.2,'11111222,11111222,11111222' 
LUMCON,ioos:station:LUMCON:101:1,2009-01-12T17:00:00Z,29.2533,-90.6633,1.0,5.1,60.0,8.8,'11111222,11111222,11111222' 
LUMCON,ioos:station:LUMCON:101:1,2009-01-12T18:00:00Z,29.2533,-90.6633,1.0,5.7,70.0,8.2,'11111222,11111222,11111222' 
LUMCON,ioos:station:LUMCON:101:1,2009-01-12T19:00:00Z,29.2533,-90.6633,1.0,5.1,70.0,7.7,'11111222,11111222,11111222' 
LUMCON,ioos:station:LUMCON:101:1,2009-01-12T20:00:00Z,29.2533,-90.6633,1.0,5.1,60.0,9.3,'11111222,11111222,11111222' 
LUMCON,ioos:station:LUMCON:101:1,2009-01-12T21:00:00Z,29.2533,-90.6633,1.0,5.7,40.0,7.7,'11111222,11111222,11111222' 
LUMCON,ioos:station:LUMCON:101:1,2009-01-12T22:00:00Z,29.2533,-90.6633,1.0,5.1,40.0,7.2,'11111222,11111222,11111222' 
LUMCON,ioos:station:LUMCON:101:1,2009-01-12T23:00:00Z,29.2533,-90.6633,1.0,4.1,60.0,6.2,'11111222,11111222,11111222' 
LUMCON,ioos:station:LUMCON:101:1,2009-01-13T00:00:00Z,29.2533,-90.6633,1.0,3.6,60.0,5.1,'11111222,11111222,11111222' 
LUMCON,ioos:station:LUMCON:101:1,2009-01-13T01:00:00Z,29.2533,-90.6633,1.0,3.6,50.0,4.6,'11111222,11111222,11111222' 
LUMCON,ioos:station:LUMCON:101:1,2009-01-13T02:00:00Z,29.2533,-90.6633,1.0,4.1,50.0,6.2,'11111222,11111222,11111222' 
LUMCON,ioos:station:LUMCON:101:1,2009-01-13T03:00:00Z,29.2533,-90.6633,1.0,4.6,30.0,5.7,'11111222,11111222,11111222' 
LUMCON,ioos:station:LUMCON:101:1,2009-01-13T04:00:00Z,29.2533,-90.6633,1.0,3.6,30.0,5.1,'11111222,11111222,11111222' 
LUMCON,ioos:station:LUMCON:101:1,2009-01-13T05:00:00Z,29.2533,-90.6633,1.0,3.6,20.0,4.1,'11111222,11111222,11111222' 
LUMCON,ioos:station:LUMCON:101:1,2009-01-13T06:00:00Z,29.2533,-90.6633,1.0,3.6,10.0,4.1,'11111222,11111222,11111222' 
LUMCON,ioos:station:LUMCON:101:1,2009-01-13T07:00:00Z,29.2533,-90.6633,1.0,4.1,0.0,5.1,'11111222,11111222,11111222' 
LUMCON,ioos:station:LUMCON:101:1,2009-01-13T08:00:00Z,29.2533,-90.6633,1.0,3.1,10.0,3.6,'11111222,11111222,11111222' 
LUMCON,ioos:station:LUMCON:101:1,2009-01-13T09:00:00Z,29.2533,-90.6633,1.0,2.6,10.0,3.1,'11111222,11111222,11111222' 
LUMCON,ioos:station:LUMCON:101:1,2009-01-13T10:00:00Z,29.2533,-90.6633,1.0,2.6,350.0,3.6,'11111222,11111222,11111222' 
LUMCON,ioos:station:LUMCON:101:1,2009-01-13T11:00:00Z,29.2533,-90.6633,1.0,2.6,350.0,3.1,'11111222,11111222,11111222' 
LUMCON,ioos:station:LUMCON:101:1,2009-01-13T12:00:00Z,29.2533,-90.6633,1.0,2.1,330.0,2.1,'11111222,11111222,11111222' 
LUMCON,ioos:station:LUMCON:101:1,2009-01-13T13:00:00Z,29.2533,-90.6633,1.0,1.5,310.0,2.1,'11111222,11111222,11111222' 
LUMCON,ioos:station:LUMCON:101:1,2009-01-13T14:00:00Z,29.2533,-90.6633,1.0,1.5,290.0,2.1,'11111222,11111222,11111222' 
LUMCON,ioos:station:LUMCON:101:1,2009-01-13T15:00:00Z,29.2533,-90.6633,1.0,3.1,270.0,4.1,'11111222,11111222,11111222' 
LUMCON,ioos:station:LUMCON:101:1,2009-01-13T16:00:00Z,29.2533,-90.6633,1.0,5.7,280.0,8.2,'11111222,11111222,11111222' 
LUMCON,ioos:station:LUMCON:101:1,2009-01-13T17:00:00Z,29.2533,-90.6633,1.0,4.6,320.0,6.7,'11111222,11111222,11111222' 
LUMCON,ioos:station:LUMCON:101:1,2009-01-13T18:00:00Z,29.2533,-90.6633,1.0,6.7,310.0,8.2,'11111222,11111222,11111222' 
LUMCON,ioos:station:LUMCON:101:1,2009-01-13T19:00:00Z,29.2533,-90.6633,1.0,5.1,340.0,7.7,'11111222,11111222,11111222' 
LUMCON,ioos:station:LUMCON:101:1,2009-01-13T20:00:00Z,29.2533,-90.6633,1.0,6.7,310.0,9.3,'11111222,11111222,11111222' 
LUMCON,ioos:station:LUMCON:101:1,2009-01-13T21:00:00Z,29.2533,-90.6633,1.0,5.1,320.0,8.8,'11111222,11111222,11111222' 
LUMCON,ioos:station:LUMCON:101:1,2009-01-13T22:00:00Z,29.2533,-90.6633,1.0,6.2,320.0,8.8,'11111222,11111222,11111222' 
LUMCON,ioos:station:LUMCON:101:1,2009-01-13T23:00:00Z,29.2533,-90.6633,1.0,5.7,330.0,7.7,'11111222,11111222,11111222' 
LUMCON,ioos:station:LUMCON:101:1,2009-01-14T00:00:00Z,29.2533,-90.6633,1.0,6.2,340.0,8.8,'11111222,11111222,11111222' 
LUMCON,ioos:station:LUMCON:101:1,2009-01-14T01:00:00Z,29.2533,-90.6633,1.0,6.7,340.0,9.3,'11111222,11111222,11111222' 
LUMCON,ioos:station:LUMCON:101:1,2009-01-14T02:00:00Z,29.2533,-90.6633,1.0,7.2,340.0,9.3,'11111222,11111222,11111222' 
LUMCON,ioos:station:LUMCON:101:1,2009-01-14T03:00:00Z,29.2533,-90.6633,1.0,5.7,330.0,7.7,'11111222,11111222,11111222' 
LUMCON,ioos:station:LUMCON:101:1,2009-01-14T04:00:00Z,29.2533,-90.6633,1.0,6.7,340.0,8.2,'11111222,11111222,11111222' 
LUMCON,ioos:station:LUMCON:101:1,2009-01-14T05:00:00Z,29.2533,-90.6633,1.0,6.2,350.0,8.2,'11111222,11111222,11111222' 